BREEZE-M DEB (TANK), 41583

Orbit data source: Space-Track

BREEZE-M DEB (TANK), 41583 is space debris in HEO originally from a launch on Thu, 09 Jun 2016 UTC launched from the Tyuratam Missile And Space Complex (TTMTR). Debris objects in space refer to the collection of defunct objects orbiting the Earth. Examples of debris include non-operational satellites, rocket bodies, and fragments generated from explosions, collisions, or faulty payload assembly.

Loading next visibility...
Identifier
41583, 2016-035C
Orbit
HEO
Country
Flag of CISCIS
Related business
Manufacturer
Khrunichev
Mission
Spacecraft
Bus & Motor
BRIZ TANK, Unknown motor
Mass
~1,000 kg wet, 1,000 kg dry
Launch date (UTC)
2016-06-09 (9 years ago)
Launch vehicle
Unknown
Launch site
Tyuratam Missile And Space Complex (TTMTR)
Object type
Payload
Rocket body
Debris
Shape & HBR
Torus, 2.0 m
Radar Cross Section
8.218 m², Large (>1 m²)

Expand to show TLE details & history
Last TLE update: 11 hours ago

TLE from 11 hours ago
0 BREEZE-M DEB (TANK)
1 41583U 16035C   25261.01349575  .00000821  00000-0  48090-3 0  9991
2 41583  50.7360 156.0177 4977564 174.9667 193.1114  5.55825114186712
Epoch: 2025-09-18T00:19Z
TLE epoch observation values (Epoch: 2025-09-18T00:19:26.032Z)
Latitude
-0.00003°
Longitude
153.97947°
Altitude
13,708.256 km
Speed
3.176 km/s
True Right ascension
10h 24m 04s
True Declination
0° 00' 00"
Sunlit
Object was in daylight at epoch
Visualization orbit readout
Latitude
Unknown
Longitude
Unknown
Altitude
Unknown
Speed
Unknown
Apparent Right ascension
Unknown
Apparent Declination
Unknown
Sunlit
N/A
Visualization observer readout
Local Sidereal Time
04:28:36
Azimuth
Unknown
Elevation
Unknown
Doppler factor
Unknown
Orbital elements
Apogee altitude
13,785.436 km
Perigee altitude
383.327 km
Semi-major axis
13,462.518 km
Eccentricity
0.49776
Inclination
50.736°
RAAN
156.0177°
Arg. of periapsis
174.9667°
True anomaly
185.08242°
Mean anomaly
193.1114°
Eccentric anomaly
188.76538°
Mean motion
1.38948 °/min
Orbital period
259.09 mins
BSTAR
0.0004809
Loading maneuver chart data...
Computing Atmospheric mass density...
Loading historical data...
Loading historical data...
Loading historical data...
Loading historical data...
Loading historical data...
Loading historical data...
Loading historical data...
Other satellites on launch #35 in the year 2016 (2016-06-09 UTC)

Documentation

Showing up to 5 results
|